sat.trackr.live / text

‹ back to catalog

STARLINK-32889

NORAD 62961 · 2025-029P

PAYLOAD ACTIVE UNKNOWN

§ Identity

Operator
Country
US
Launch date
2025-02-11
Launch site
AFWTR
Launch vehicle
Mass (kg)
RCS (m²)

Purposes: comms

External: N2YO · Heavens-Above · Gunter

§ Orbital elements

Epoch: 2026-05-24T23:30:25.952256Z

Period
94.10 min
Inclination
53.1594°
Eccentricity
0.0001438
Mean motion
15.30212140 rev/d
Perigee alt
474.2 km
Apogee alt
476.2 km
Semi-major
6,853.3 km
B*
4.5384e-4
RAAN
238.4014°
Arg perigee
90.5467°
Mean anomaly
269.5698°
Rev number
7,299

§ Raw data

STARLINK-328891 62961U 25029P   26144.97946704  .00013111  00000+0  45384-3 0  99982 62961  53.1594 238.4014 0001438  90.5467 269.5698 15.30212140 72993

JSON: /api/v1/satellites/62961 · /tle

For live sub-satellite position, see the globe view (requires WebGL).

§ Visibility from observer

Set your observer location to see the next 7 days of passes ≥ 10°. The values pass through the URL so the page stays shareable.

No JS? Fill the form by hand. The geolocation button needs JavaScript.